Lapse_Rate
7.4 7.2 6.9 6.8 6.8 6.9 6.9 6.9 7.0 7.1 7.1 7.0 7.0 7.0 6.9 6.8 6.8 6.7 6.6 6.6 6.6 6.6 6.6 6.6 6.7 6.7 6.8 6.7 6.7 6.8 6.8 6.7
7.1 6.8 6.8 6.9 6.9 7.0 7.1 7.1 7.0 7.0 6.9 6.8 6.7 6.7 6.6 6.6 6.6 6.5 6.6 6.6 6.6 6.5 6.4 6.4 6.4 6.4 6.3 6.4 6.6 6.5 6.6 6.5
6.5 6.4 6.5 6.6 6.7 6.8 6.7 6.7 6.7 6.7 6.6 6.5 6.5 6.6 6.6 6.7 6.7 6.7 6.7 6.7 6.6 6.6 6.5 6.4 6.3 6.3 6.2 6.1 6.1 6.1 6.3 6.3
6.7 6.6 6.7 6.7 6.6 6.5 6.6 6.7 6.7 6.7 6.6 6.7 6.7 6.7 6.7 6.5 6.7 6.6 6.7 6.6 6.5 6.6 6.5 6.5 6.4 6.3 6.2 6.4 6.1 6.1 5.9 5.9
6.2 6.6 6.6 6.4 6.3 6.5 6.5 6.6 6.7 6.6 6.6 6.5 6.5 6.5 6.6 6.5 6.3 6.4 6.5 6.5 6.5 6.4 6.5 6.5 6.3 6.2 6.1 6.0 6.0 6.1 6.0 5.8
6.1 6.6 6.6 6.6 6.6 6.5 6.5 6.6 6.4 6.4 6.5 6.5 6.6 6.6 6.6 6.6 6.4 6.3 6.1 6.1 6.1 6.1 6.0 6.0 6.1 6.1 6.0 5.9 5.9 5.8 5.8 5.9
6.0 6.6 6.8 6.7 6.5 6.4 6.5 6.5 6.6 6.6 6.6 6.6 6.6 6.4 6.2 6.2 6.0 6.1 6.2 6.1 5.9 5.9 5.9 5.9 6.0 6.0 6.0 5.9 5.8 5.7 5.7 5.5
6.4 6.1 6.5 6.4 6.4 6.5 6.5 6.6 6.5 6.4 6.3 6.3 6.2 6.1 6.0 5.8 5.8 5.8 5.7 5.7 5.7 5.7 5.7 5.8 5.8 5.7 5.7 5.8 5.9 5.7 5.7 5.8
6.6 6.1 6.7 6.6 6.6 6.7 6.5 6.3 6.2 6.2 6.2 6.1 5.8 5.6 5.5 5.6 5.6 5.3 5.3 5.3 5.4 5.6 5.7 5.7 5.7 5.7 5.6 5.6 5.6 5.6 5.5 5.4
6.5 6.5 6.7 6.7 6.6 6.6 6.5 6.3 6.2 6.0 5.9 5.8 5.8 5.7 5.8 5.8 5.9 5.8 5.5 5.7 5.7 5.7 5.7 5.6 5.6 5.8 5.8 5.8 5.4 5.3 5.3 5.5
6.7 6.7 6.7 6.8 6.7 6.5 6.6 6.4 6.3 6.0 5.8 5.6 5.6 5.6 5.7 5.5 5.5 5.6 5.5 5.5 5.7 5.7 5.8 5.8 5.9 6.0 6.0 5.6 5.8 6.1 6.0 5.7
7.2 7.1 6.9 7.3 6.6 6.6 6.4 6.3 6.1 6.2 6.0 5.9 6.0 5.8 5.8 5.6 5.5 5.6 5.7 5.5 5.6 5.7 5.7 5.7 5.5 5.5 5.6 5.4 5.7 5.5 5.6 5.7
7.2 7.2 7.2 6.9 6.8 6.7 6.5 6.5 6.4 6.2 6.2 5.9 5.8 5.7 5.7 5.6 5.5 5.5 5.5 5.5 5.6 5.7 5.8 5.8 6.0 6.1 5.7 5.9 5.9 6.1 5.7 5.8
7.0 6.9 6.9 6.9 6.8 6.8 6.8 6.6 6.4 6.3 6.1 5.9 5.7 5.6 5.3 5.3 5.3 5.5 5.6 5.7 5.8 5.9 5.9 6.0 5.9 6.1 6.1 6.1 5.9 5.9 6.0 5.5
7.0 7.0 7.0 6.9 6.8 6.7 6.7 6.6 6.2 5.9 5.7 5.6 5.5 5.7 5.9 6.1 6.0 6.0 6.0 5.9 5.7 5.8 6.0 6.1 6.1 6.3 6.7 6.5 6.2 6.1 5.9 6.0
6.9 6.8 6.6 6.6 6.7 6.6 6.4 6.1 5.9 5.5 5.5 5.7 6.0 6.1 6.1 6.2 6.2 6.1 6.2 6.2 6.2 6.2 6.3 6.4 6.6 6.6 6.8 7.0 6.4 6.3 6.7 6.5
6.7 6.6 6.5 6.4 6.3 6.1 5.9 5.7 5.7 5.7 5.9 6.3 6.3 6.4 6.5 6.4 6.1 6.0 6.1 6.2 6.2 6.3 6.4 6.6 6.8 6.7 6.7 6.7 6.8 6.8 6.6 6.4
6.6 6.5 6.2 5.9 5.8 5.8 6.0 6.2 6.4 6.5 6.6 6.6 6.5 6.4 6.5 6.2 5.9 5.9 6.0 6.1 6.4 6.5 6.7 6.7 6.9 6.9 6.8 6.6 6.6 6.6 6.4 6.4
6.4 6.0 5.9 5.6 5.7 6.2 6.2 6.1 6.1 6.1 6.1 6.1 6.2 6.1 6.2 6.2 6.2 6.3 6.5 6.5 6.4 6.4 6.6 6.8 6.8 6.4 6.2 6.1 6.0 6.0 6.1 6.2
6.2 6.2 6.1 6.0 5.9 5.9 5.9 5.9 6.0 6.1 6.2 6.0 6.3 6.3 6.3 6.3 6.3 6.4 6.4 6.3 6.2 6.3 5.9 5.6 5.5 5.8 6.1 6.0 6.2 6.2 6.0 6.4
Wind_Speed
11 11 8 7 7 7 6 7 7 6 5 6 5 5 5 4 5 5 6 6 6 5 4 3 3 3 4 6 8 12 14 7
9 6 8 7 11 9 5 6 5 4 4 3 3 5 7 5 5 6 4 3 2 2 1 2 4 5 5 6 10 15 15 10
4 8 5 4 4 10 8 7 6 7 6 6 6 6 2 3 7 4 1 1 2 3 3 6 9 12 10 8 11 12 7 10
9 4 4 3 2 2 3 2 1 3 5 4 6 6 5 6 3 7 8 8 11 11 10 11 13 11 8 13 11 8 11 8
8 5 2 2 6 5 2 1 2 1 1 6 9 7 6 7 8 5 5 7 10 6 7 9 10 10 10 11 10 11 11 9
8 7 5 2 4 3 4 2 4 4 8 5 8 8 9 9 9 11 11 10 10 10 11 9 10 9 11 9 9 9 10 8
6 8 6 4 1 3 2 3 1 5 2 5 5 8 6 9 10 10 10 11 11 10 11 11 10 10 10 10 10 10 10 10
8 7 7 5 3 1 2 1 1 3 1 6 3 5 7 9 9 10 11 12 12 12 11 9 9 11 9 10 10 12 11 11
5 6 6 5 3 3 2 2 2 2 2 0 2 4 7 10 9 8 12 14 14 13 12 12 9 9 11 9 11 13 12 12
5 5 7 7 2 1 1 0 3 4 4 3 3 5 7 10 8 8 13 14 14 10 10 10 10 10 9 10 10 11 12 12
3 6 7 6 4 3 1 2 7 6 6 7 5 8 8 10 10 12 13 13 9 10 10 10 10 11 12 11 10 11 11 13
2 5 3 1 1 2 4 4 5 5 6 6 7 10 9 11 12 12 14 10 9 10 11 11 11 11 14 13 11 10 10 10
5 7 2 2 2 3 4 4 5 6 7 6 9 9 12 12 11 10 11 10 10 11 11 12 11 11 11 11 12 13 13 12
6 6 5 4 4 4 3 4 5 6 8 9 11 9 15 15 11 10 11 10 11 11 12 10 11 10 12 12 13 12 12 14
7 7 7 7 7 4 5 6 5 7 7 9 11 16 17 17 16 12 11 11 10 11 11 14 12 11 13 12 13 14 11 11
7 6 5 5 6 5 5 5 7 8 8 9 10 18 18 19 20 16 10 8 12 11 12 11 12 13 10 12 15 14 15 15
4 3 4 5 6 6 6 8 7 8 8 12 13 11 19 20 19 16 12 10 10 12 12 10 9 10 11 11 11 9 6 4
4 6 7 5 6 7 7 8 9 9 10 10 10 11 11 16 19 15 14 11 10 9 8 7 6 6 7 8 7 4 7 5
6 8 10 8 6 9 10 10 11 12 12 11 14 12 10 11 12 11 9 9 7 7 8 8 7 6 5 4 4 3 2 2
8 11 12 13 12 12 11 11 8 9 12 11 10 11 11 13 11 12 10 8 8 6 3 2 1 3 3 3 3 3 3 3
Wind_Direction
135 135 129 128 126 111 97 85 79 82 84 88 95 105 96 91 85 75 65 55 47 40 29 18 1 345 332 324 310 298 297 292
134 145 142 163 141 133 113 99 104 118 127 125 189 187 167 166 142 88 67 54 44 15 321 291 274 267 266 283 287 284 260 318
142 133 96 74 65 121 161 159 176 192 187 184 247 250 295 165 85 87 111 167 231 233 251 265 258 243 229 240 273 272 316 293
138 143 117 91 94 81 131 137 258 358 5 353 307 13 345 317 239 185 199 209 224 219 217 239 254 284 229 222 257 337 292 298
144 134 128 326 61 6 291 282 41 2 311 358 343 341 345 324 333 291 307 222 294 248 259 270 342 312 311 309 307 290 282 299
157 143 170 204 315 336 15 268 22 314 31 340 348 331 350 349 331 333 317 327 323 304 309 309 289 288 290 286 279 284 282 298
172 163 196 188 206 336 336 315 304 21 325 24 356 341 351 336 337 318 318 313 309 312 309 303 298 279 270 280 278 272 274 277
187 200 183 195 241 351 312 207 345 236 25 50 11 339 340 321 322 316 312 313 312 313 313 310 302 298 281 264 268 278 272 263
198 193 172 200 205 206 279 21 313 291 327 74 333 306 317 310 306 310 310 314 308 293 291 287 281 281 282 264 257 253 251 258
215 171 181 195 216 228 276 287 278 274 270 295 304 304 303 298 297 303 307 306 296 296 293 288 285 280 273 272 277 263 250 241
247 166 203 187 149 275 222 249 251 296 331 296 338 305 308 306 300 302 308 297 290 292 290 287 282 278 274 271 257 259 262 247
173 161 149 82 297 225 251 240 265 272 284 312 333 315 325 309 301 295 297 292 291 291 295 293 290 286 288 285 287 272 250 251
96 88 57 287 302 322 315 302 323 298 318 344 322 338 319 310 301 300 296 294 300 298 290 283 278 280 277 268 260 257 255 253
90 96 51 19 49 359 341 322 310 322 287 341 302 329 312 308 316 305 302 298 293 286 284 282 277 273 275 278 275 266 248 232
83 81 73 48 0 13 348 315 305 315 325 315 320 321 313 312 306 302 302 299 291 292 292 288 286 280 277 275 277 268 269 255
78 62 52 46 28 5 337 320 318 330 299 316 321 311 310 316 313 312 308 309 296 294 291 305 304 293 293 284 281 272 275 278
50 23 32 21 355 345 327 340 329 316 314 317 313 314 324 317 321 323 314 301 303 304 301 308 309 313 320 324 327 309 325 316
7 343 342 345 344 332 327 314 313 317 321 319 324 324 317 318 319 318 305 299 308 322 14 7 340 353 355 356 7 352 352 338
339 332 324 331 322 315 324 323 326 326 329 330 329 321 317 317 322 310 311 330 344 16 16 20 30 6 9 353 1 13 3 341
335 327 322 329 333 334 334 333 333 333 337 329 318 322 321 326 315 343 349 9 39 56 75 77 13 319 308 274 277 277 282 278